User: anonymous   Login
Location: ???? ??
(36.0534°N, 43.5630°E)
Time: 16:27:30
(UTC+00:00)
Language:

Meteor 2-15 - Orbit

View from above orbital plane
View from above orbital plane
View from above satellite
View from above satellite

Ground track
Ground track

The orbit data is extracted from the following two-line orbital elements,

1 17290U 87001A   19323.86090494  .00000030  00000-0  13120-4 0  9997
2 17290  82.4694 226.6903 0014383  70.8173 289.4543 13.85042790661408
Epoch (UTC): 19 November 2019 20:39:42
Eccentricity: 0.0014383
inclination: 82.4694°
perigee height: 935 km
apogee height: 956 km
right ascension of ascending node: 226.6903°
argument of perigee: 70.8173°
revolutions per day: 13.85042790
mean anomaly at epoch: 289.4543°
orbit number at epoch: 66140

The dashed part of the orbit path shows where the satellite is in the earth's shadow,  

DLR